This demonstration page uses our WeatherBlox Daily Observations layout. Learn more.

Left ArrowRight Arrow

40.92945, -100.16068

Hourly Observations for November 29, 2021

Temp ( °F °C ) Dew Point ( °F °C ) Humidity (%) Winds ( mph kmh ) Pressure ( in mb ) Visibility ( mi km ) Precip ( " mm )
12:15 am 00:15 Clear 31 -0.5 26 -3.1 83 83 W 3 6 30.10 1019 10 16 0.00 0.00
12:35 am 00:35 Clear 32 0.2 27 -2.9 80 80 Calm 30.08 1019 10 16 0.00 0.00
12:55 am 00:55 Clear 32 0 26 -3.2 79 79 WNW 8 13 30.09 1019 10 16 0.00 0.00
1:15 am 01:15 Clear 32 -0.1 27 -3 81 81 WNW 8 13 30.09 1019 10 16 0.00 0.00
1:35 am 01:35 Clear 33 0.5 28 -2.3 82 82 WNW 8 13 30.07 1018 10 16 0.00 0.00
1:55 am 01:55 Clear 33 0.5 28 -2.4 81 81 WNW 10 17 30.06 1018 10 16 0.00 0.00
2:15 am 02:15 Clear 34 0.9 28 -2.2 80 80 WNW 8 13 30.07 1018 10 16 0.00 0.00
2:35 am 02:35 Clear 33 0.7 28 -2.3 81 81 NW 7 11 30.06 1018 10 16 0.00 0.00
2:55 am 02:55 Clear 32 0.1 28 -2.3 84 84 WNW 7 11 30.08 1018 10 16 0.00 0.00
3:15 am 03:15 Clear 32 0.1 28 -2.3 84 84 WNW 8 13 30.08 1018 10 16 0.00 0.00
3:35 am 03:35 Clear 33 0.5 28 -2.1 83 83 W 7 11 30.07 1018 10 16 0.00 0.00
3:55 am 03:55 Clear 32 0.1 28 -2.1 85 85 WNW 8 13 30.07 1018 10 16 0.00 0.00
4:15 am 04:15 Clear 32 -0.1 28 -2.5 84 84 WNW 7 11 30.07 1018 10 16 0.00 0.00
4:35 am 04:35 Clear 31 -0.3 28 -2.5 85 85 W 9 15 30.07 1018 10 16 0.00 0.00
4:55 am 04:55 Clear 32 -0.1 28 -2.2 86 86 W 8 13 30.07 1018 10 16 0.00 0.00
5:15 am 05:15 Clear 32 0.1 29 -1.7 88 88 WNW 10 17 30.07 1018 10 16 0.00 0.00
5:35 am 05:35 Clear 31 -0.5 28 -2.5 87 87 WNW 6 9 30.07 1018 10 16 0.00 0.00
5:55 am 05:55 Clear 31 -0.3 28 -2.3 87 87 W 8 13 30.07 1018 10 16 0.00 0.00
6:15 am 06:15 Clear 31 -0.8 27 -2.6 88 88 W 9 15 30.07 1018 10 16 0.00 0.00
6:35 am 06:35 Clear 30 -1.1 27 -2.7 89 89 WNW 8 13 30.08 1019 10 16 0.00 0.00
6:55 am 06:55 Clear 32 -0.2 28 -2.1 87 87 W 7 11 30.08 1019 10 16 0.00 0.00
7:15 am 07:15 Clear 32 0.1 29 -1.7 88 88 W 6 9 30.08 1018 10 16 0.00 0.00
7:35 am 07:35 Clear 32 0 29 -1.5 90 90 NW 6 9 30.09 1019 10 16 0.00 0.00
7:55 am 07:55 Sunny 33 0.4 29 -1.5 87 87 WNW 7 11 30.08 1019 10 16 0.00 0.00
8:15 am 08:15 Sunny 33 0.7 30 -1.1 88 88 WNW 5 7 30.08 1019 10 16 0.00 0.00
8:35 am 08:35 Sunny 36 2 31 -0.5 84 84 WNW 6 9 30.07 1018 10 16 0.00 0.00
8:55 am 08:55 Sunny 39 3.7 33 0.4 79 79 WNW 8 13 30.06 1018 10 16 0.00 0.00
9:15 am 09:15 Sunny 42 5.6 34 1.1 73 73 WNW 6 9 30.04 1017 10 16 0.00 0.00
9:35 am 09:35 Sunny 44 6.5 35 1.4 70 70 WNW 7 11 30.03 1017 10 16 0.00 0.00
9:55 am 09:55 Sunny 46 7.5 34 1.3 65 65 WNW 8 13 30.03 1017 10 16 0.00 0.00
10:15 am 10:15 Sunny 49 9.3 34 0.9 56 56 WNW 14 22 30.02 1017 10 16 0.00 0.00
10:35 am 10:35 Sunny 50 9.8 34 1 55 55 WNW 12 19 30.02 1017 10 16 0.00 0.00
10:55 am 10:55 Sunny 52 11.2 35 1.4 51 51 WNW 12 19 30.01 1016 10 16 0.00 0.00
11:15 am 11:15 Sunny 54 12.3 34 1.2 47 47 WNW 15 24 29.99 1016 10 16 0.00 0.00
11:35 am 11:35 Sunny 56 13.5 34 1.3 44 44 WNW 13 20 29.97 1015 10 16 0.00 0.00
11:55 am 11:55 Sunny 59 14.8 35 1.6 41 41 NW 12 19 29.95 1014 10 16 0.00 0.00
12:15 pm 12:15 Sunny 59 15.2 35 1.5 40 40 WNW 10 17 29.94 1014 10 16 0.00 0.00
12:35 pm 12:35 Sunny 62 16.6 35 1.8 37 37 WNW 12 19 29.92 1013 10 16 0.00 0.00
12:55 pm 12:55 Sunny 64 17.5 35 1.9 35 35 W 8 13 29.90 1013 10 16 0.00 0.00
1:15 pm 13:15 Sunny 66 18.7 36 2.2 33 33 WNW 10 17 29.89 1012 10 16 0.00 0.00
1:35 pm 13:35 Sunny 67 19.5 36 2.2 32 32 W 9 15 29.88 1012 10 16 0.00 0.00
1:55 pm 13:55 Sunny 69 20.5 36 2.1 30 30 WNW 10 17 29.87 1011 10 16 0.00 0.00
2:15 pm 14:15 Sunny 70 21.1 36 2 28 28 W 10 17 29.86 1011 10 16 0.00 0.00
2:35 pm 14:35 Sunny 71 21.7 33 0.7 25 25 N 12 19 29.86 1011 10 16 0.00 0.00
2:55 pm 14:55 Sunny 72 22 31 -0.4 23 23 N 12 19 29.87 1011 10 16 0.00 0.00
3:15 pm 15:15 Sunny 71 21.6 31 -0.8 22 22 N 14 22 29.87 1011 10 16 0.00 0.00
3:35 pm 15:35 Sunny 70 21.2 31 -0.6 23 23 N 15 24 29.87 1012 10 16 0.00 0.00
3:55 pm 15:55 Sunny 69 20.6 32 -0.1 25 25 N 8 13 29.88 1012 10 16 0.00 0.00
4:15 pm 16:15 Sunny 68 19.8 32 0 27 27 N 6 9 29.88 1012 10 16 0.00 0.00
4:35 pm 16:35 Sunny 66 19 32 -0.1 28 28 N 3 6 29.89 1012 10 16 0.00 0.00
4:55 pm 16:55 Sunny 65 18.3 32 -0.1 29 29 Calm 29.91 1013 10 16 0.00 0.00
5:15 pm 17:15 Clear 64 17.5 31 -0.5 30 30 N 7 11 29.92 1013 10 16 0.00 0.00
5:35 pm 17:35 Clear 56 13.3 29 -1.5 36 36 NNE 8 13 29.96 1015 7 11 0.00 0.00
5:55 pm 17:55 Clear 54 12.1 30 -1.2 40 40 NE 6 9 29.98 1015 10 16 0.00 0.00
6:15 pm 18:15 Clear 50 9.9 28 -2 44 44 NNE 6 9 30.01 1016 10 16 0.00 0.00
6:35 pm 18:35 Clear 48 8.9 29 -1.9 47 47 Calm 30.02 1017 10 16 0.00 0.00
6:55 pm 18:55 Clear 46 8 29 -1.7 51 51 Calm 30.04 1017 10 16 0.00 0.00
7:15 pm 19:15 Clear 44 6.8 28 -2.2 53 53 Calm 30.06 1018 10 16 0.00 0.00
7:35 pm 19:35 Clear 43 6.2 27 -3 52 52 Calm 30.07 1018 10 16 0.00 0.00
7:55 pm 19:55 Clear 42 5.6 28 -2.3 57 57 Calm 30.08 1019 10 16 0.00 0.00
8:15 pm 20:15 Clear 38 3.3 27 -2.6 66 66 W 5 7 30.10 1019 10 16 0.00 0.00
8:35 pm 20:35 Clear 36 2.3 28 -2.5 71 71 W 5 7 30.11 1020 10 16 0.00 0.00
8:55 pm 20:55 Clear 36 2.4 28 -2.4 71 71 SW 3 6 30.10 1019 10 16 0.00 0.00
9:15 pm 21:15 Clear 35 1.8 26 -3.4 69 69 SW 3 6 30.12 1020 10 16 0.00 0.00
9:35 pm 21:35 Clear 34 1.1 27 -2.9 75 75 W 5 7 30.13 1020 10 16 0.00 0.00
9:55 pm 21:55 Clear 32 0 26 -3.4 78 78 W 7 11 30.15 1021 10 16 0.00 0.00
10:15 pm 22:15 Clear 33 0.7 27 -2.9 77 77 WNW 7 11 30.15 1021 10 16 0.00 0.00
10:35 pm 22:35 Clear 34 1 27 -3 75 75 WNW 6 9 30.14 1021 10 16 0.00 0.00
10:55 pm 22:55 Clear 32 -0.1 26 -3.5 78 78 WNW 5 7 30.16 1021 10 16 0.00 0.00
11:15 pm 23:15 Clear 32 -0.1 26 -3.6 78 78 N 9 15 30.16 1021 10 16 0.00 0.00
11:35 pm 23:35 Clear 32 0.2 27 -3 79 79 N 5 7 30.15 1021 10 16 0.00 0.00
11:55 pm 23:55 Clear 32 -0.2 25 -3.7 78 78 W 3 6 30.16 1021 10 16 0.00 0.00

Powered by AerisWeather